THORAD AGENA D DEB

基本信息
目录编号:
5150
目录名称:
THORAD AGENA D DEB
国际标识:
1970-025JT
轨道中心:
EARTH
物体状态:
在轨
发射日期:
1970-04-08 UTC
轨道信息
数据来源: 国际轨道数据
星历时间: 2026-09-05T12:30:16+0800
半长轴: 7289.038km
偏心率: 0.0087006
轨道倾角: 99.467°
近地点辐角: 238.867°
升交点赤经: 335.601°
平近点角: 120.393°
近地点: 847.481km
远地点: 974.321km
周期: 103.220分钟
每日圈数: 13.950748
详细信息
发射场:
AFWTR
轨道高度:
LEO
数据来源:
AOE Integration Group
参考系:
TEME
时间系统:
UTC
历元类型:
SGP4
2D轨道图
3D轨道图
轨道高度分析图
轨道倾角分析图
轨道综合分析图
查看轨道综合分析图